TimeEDT,TemperatureF,Dew PointF,Humidity,Sea Level PressureIn,VisibilityMPH,Wind Direction,Wind SpeedMPH,Gust SpeedMPH,PrecipitationIn,Events,Conditions,WindDirDegrees,DateUTC
12:15 AM,73.4,70.7,91,30.06,10.0,Calm,Calm,-,N/A,,Clear,0,2013-08-08 04:15:00
12:35 AM,73.6,70.3,90,30.06,10.0,Calm,Calm,-,N/A,,Clear,0,2013-08-08 04:35:00
12:55 AM,72.7,70.0,91,30.06,10.0,Calm,Calm,-,N/A,,Clear,0,2013-08-08 04:55:00
1:15 AM,72.1,69.8,92,30.06,10.0,Calm,Calm,-,N/A,,Clear,0,2013-08-08 05:15:00
1:35 AM,72.0,70.2,94,30.06,10.0,Calm,Calm,-,N/A,,Clear,0,2013-08-08 05:35:00
1:55 AM,71.4,69.6,94,30.06,7.0,Calm,Calm,-,N/A,,Clear,0,2013-08-08 05:55:00
2:15 AM,71.1,69.8,96,30.06,7.0,Calm,Calm,-,N/A,,Clear,0,2013-08-08 06:15:00
2:35 AM,71.1,69.6,95,30.06,10.0,Calm,Calm,-,N/A,,Clear,0,2013-08-08 06:35:00
2:55 AM,70.9,69.4,95,30.06,7.0,Calm,Calm,-,N/A,,Clear,0,2013-08-08 06:55:00
3:15 AM,70.7,69.3,95,30.05,7.0,Calm,Calm,-,N/A,,Clear,0,2013-08-08 07:15:00
3:35 AM,70.5,69.1,95,30.05,5.0,Calm,Calm,-,N/A,,Clear,0,2013-08-08 07:35:00
3:55 AM,70.3,69.1,96,30.05,5.0,Calm,Calm,-,N/A,,Clear,0,2013-08-08 07:55:00
4:15 AM,70.0,68.9,96,30.06,5.0,Calm,Calm,-,N/A,,Clear,0,2013-08-08 08:15:00
4:35 AM,70.0,68.9,96,30.06,4.0,Calm,Calm,-,N/A,,Clear,0,2013-08-08 08:35:00
4:55 AM,69.8,68.9,97,30.05,3.0,Calm,Calm,-,N/A,,Clear,0,2013-08-08 08:55:00
5:15 AM,70.2,69.1,96,30.05,7.0,Calm,Calm,-,N/A,,Clear,0,2013-08-08 09:15:00
5:35 AM,69.8,68.5,96,30.06,4.0,Calm,Calm,-,N/A,,Clear,0,2013-08-08 09:35:00
5:55 AM,69.8,68.5,96,30.06,4.0,Calm,Calm,-,N/A,,Clear,0,2013-08-08 09:55:00
6:15 AM,69.4,68.4,96,30.06,5.0,Calm,Calm,-,N/A,,Clear,0,2013-08-08 10:15:00
6:35 AM,68.9,67.8,96,30.06,4.0,Calm,Calm,-,N/A,,Scattered Clouds,0,2013-08-08 10:35:00
6:55 AM,68.9,68.0,97,30.07,5.0,Calm,Calm,-,N/A,,Clear,0,2013-08-08 10:55:00
7:15 AM,69.6,68.7,97,30.06,3.0,Calm,Calm,-,N/A,,Clear,0,2013-08-08 11:15:00
7:35 AM,71.1,70.2,97,30.06,4.0,Calm,Calm,-,N/A,,Clear,0,2013-08-08 11:35:00
7:55 AM,72.1,70.9,96,30.06,7.0,Calm,Calm,-,N/A,,Clear,0,2013-08-08 11:55:00
8:15 AM,73.2,70.9,92,30.06,10.0,Calm,Calm,-,N/A,,Clear,0,2013-08-08 12:15:00
8:35 AM,74.5,70.9,88,30.07,10.0,Calm,Calm,-,N/A,,Clear,0,2013-08-08 12:35:00
8:55 AM,75.6,71.2,86,30.07,10.0,Calm,Calm,-,N/A,,Clear,0,2013-08-08 12:55:00
9:15 AM,77.2,72.0,84,30.07,10.0,Calm,Calm,-,N/A,,Scattered Clouds,0,2013-08-08 13:15:00
9:35 AM,77.7,71.8,82,30.07,10.0,Calm,Calm,-,N/A,,Scattered Clouds,0,2013-08-08 13:35:00
9:55 AM,78.8,71.6,78,30.08,10.0,Calm,Calm,-,N/A,,Scattered Clouds,0,2013-08-08 13:55:00
10:15 AM,78.8,70.9,77,30.08,10.0,Calm,Calm,-,N/A,,Mostly Cloudy,0,2013-08-08 14:15:00
10:35 AM,81.5,70.0,68,30.08,10.0,SW,4.6,-,N/A,,Scattered Clouds,230,2013-08-08 14:35:00
10:55 AM,-9999,-9999,N/A,-9999,-9999.0,North,-9999.0,-,N/A,,Unknown,0,2013-08-08 14:55:00
11:15 AM,82.4,69.6,65,30.08,10.0,South,3.5,-,0.03,,Scattered Clouds,180,2013-08-08 15:15:00
11:35 AM,83.8,69.4,62,30.08,10.0,SW,4.6,-,0.03,,Scattered Clouds,230,2013-08-08 15:35:00
11:55 AM,83.1,68.0,60,30.08,10.0,Calm,Calm,-,0.03,,Mostly Cloudy,0,2013-08-08 15:55:00
12:15 PM,84.7,68.5,58,30.07,10.0,South,5.8,-,N/A,,Scattered Clouds,190,2013-08-08 16:15:00
12:35 PM,85.6,67.8,55,30.07,10.0,Calm,Calm,-,N/A,,Clear,0,2013-08-08 16:35:00
12:55 PM,85.5,67.3,54,30.07,10.0,SW,6.9,-,N/A,,Mostly Cloudy,230,2013-08-08 16:55:00
1:15 PM,86.5,67.1,52,30.07,10.0,WSW,3.5,-,N/A,,Mostly Cloudy,240,2013-08-08 17:15:00
1:35 PM,86.2,67.6,54,30.07,10.0,Calm,Calm,-,N/A,,Scattered Clouds,0,2013-08-08 17:35:00
1:55 PM,87.4,68.2,53,30.06,10.0,Calm,Calm,-,N/A,,Scattered Clouds,0,2013-08-08 17:55:00
2:15 PM,86.7,66.9,52,30.06,10.0,Calm,Calm,-,N/A,,Scattered Clouds,0,2013-08-08 18:15:00
2:35 PM,86.5,67.8,53,30.05,10.0,Calm,Calm,-,N/A,,Scattered Clouds,0,2013-08-08 18:35:00
2:55 PM,86.9,67.8,53,30.04,10.0,Calm,Calm,-,N/A,,Mostly Cloudy,0,2013-08-08 18:55:00
3:15 PM,86.9,68.2,54,30.04,10.0,Calm,Calm,-,N/A,,Scattered Clouds,0,2013-08-08 19:15:00
3:35 PM,87.6,67.8,52,30.03,10.0,Calm,Calm,-,N/A,,Scattered Clouds,0,2013-08-08 19:35:00
3:55 PM,87.8,68.5,53,30.02,10.0,Calm,Calm,-,N/A,,Clear,0,2013-08-08 19:55:00
4:15 PM,86.0,69.6,58,30.02,10.0,Calm,Calm,-,N/A,,Scattered Clouds,0,2013-08-08 20:15:00
4:35 PM,88.0,68.2,52,30.01,10.0,Calm,Calm,-,N/A,,Mostly Cloudy,0,2013-08-08 20:35:00
4:55 PM,86.9,69.1,55,30.01,10.0,Calm,Calm,-,N/A,,Scattered Clouds,0,2013-08-08 20:55:00
5:15 PM,87.6,69.3,54,30.01,10.0,Calm,Calm,-,N/A,,Mostly Cloudy,0,2013-08-08 21:15:00
5:35 PM,86.5,70.2,58,30.01,10.0,Calm,Calm,-,N/A,,Scattered Clouds,0,2013-08-08 21:35:00
5:55 PM,87.1,69.6,56,30.01,10.0,Calm,Calm,-,N/A,,Scattered Clouds,0,2013-08-08 21:55:00
6:15 PM,85.6,73.4,67,30.01,10.0,Calm,Calm,-,N/A,,Scattered Clouds,0,2013-08-08 22:15:00
6:35 PM,87.8,69.6,55,30.01,10.0,Calm,Calm,-,N/A,,Mostly Cloudy,0,2013-08-08 22:35:00
6:55 PM,86.9,71.8,61,30.01,10.0,Calm,Calm,-,N/A,,Mostly Cloudy,0,2013-08-08 22:55:00
7:15 PM,84.4,75.0,73,30.02,10.0,Calm,Calm,-,N/A,,Scattered Clouds,0,2013-08-08 23:15:00
7:35 PM,81.5,73.9,78,30.02,10.0,Calm,Calm,-,N/A,,Scattered Clouds,0,2013-08-08 23:35:00
7:55 PM,80.1,75.2,85,30.02,10.0,Calm,Calm,-,N/A,,Scattered Clouds,0,2013-08-08 23:55:00
8:15 PM,79.5,74.5,84,30.02,10.0,Calm,Calm,-,N/A,,Clear,0,2013-08-09 00:15:00
8:35 PM,78.3,74.8,89,30.03,10.0,Calm,Calm,-,N/A,,Clear,0,2013-08-09 00:35:00
8:55 PM,77.2,74.1,90,30.03,10.0,Calm,Calm,-,N/A,,Clear,0,2013-08-09 00:55:00
9:15 PM,77.4,75.0,92,30.04,10.0,Calm,Calm,-,N/A,,Scattered Clouds,0,2013-08-09 01:15:00
9:35 PM,76.1,73.8,92,30.04,5.0,Calm,Calm,-,N/A,,Scattered Clouds,0,2013-08-09 01:35:00
9:55 PM,76.1,74.3,94,30.04,7.0,Calm,Calm,-,N/A,,Clear,0,2013-08-09 01:55:00
10:15 PM,75.7,73.9,94,30.04,3.0,Calm,Calm,-,N/A,,Clear,0,2013-08-09 02:15:00
10:35 PM,75.2,73.6,95,30.04,4.0,Calm,Calm,-,N/A,,Clear,0,2013-08-09 02:35:00
10:55 PM,74.5,73.0,95,30.04,2.5,Calm,Calm,-,N/A,,Clear,0,2013-08-09 02:55:00
11:15 PM,74.5,73.4,96,30.04,5.0,Calm,Calm,-,N/A,,Clear,0,2013-08-09 03:15:00
11:35 PM,74.3,73.2,96,30.04,3.0,Calm,Calm,-,N/A,,Clear,0,2013-08-09 03:35:00
11:55 PM,74.3,73.0,96,30.04,7.0,Calm,Calm,-,N/A,,Clear,0,2013-08-09 03:55:00